• In Uzbekistan
  • List of Countries
  • For 7 days
  • Water Temperature
  • Satellite Maps
  • Weather Map
  • Weather Widgets
  • user-avatar
    Login

    Hourly Weather Linz

    Today, 8 December, Thursday

    Time Temperature Precipitation Wind Pressure Humidity
    00:00 -1°C° 0 mm 1 mps 746 mmHg 72%
    01:00 0°C° 0 mm 1 mps 746 mmHg 71%
    02:00 0°C° 0 mm 1 mps 746 mmHg 70%
    03:00 0°C° 0 mm 1 mps 746 mmHg 69%
    04:00 0°C° 0 mm 1 mps 746 mmHg 67%
    05:00 0°C° 0 mm 1 mps 745 mmHg 67%
    06:00 0°C° 0 mm 1 mps 745 mmHg 67%
    07:00 0°C° 0 mm 1 mps 745 mmHg 67%
    08:00 +1°C° 0 mm 0 mps 745 mmHg 61%
    09:00 +2°C° 0 mm 0 mps 745 mmHg 56%
    10:00 +4°C° 0 mm 0 mps 745 mmHg 50%
    11:00 +6°C° 0 mm 1 mps 745 mmHg 49%
    12:00 +7°C° 0 mm 1 mps 745 mmHg 48%
    13:00 +9°C° 0 mm 1 mps 745 mmHg 46%
    14:00 +6°C° 0 mm 1 mps 744 mmHg 49%
    15:00 +4°C° 0 mm 1 mps 744 mmHg 53%
    16:00 +2°C° 0 mm 1 mps 743 mmHg 56%
    17:00 +2°C° 0 mm 1 mps 743 mmHg 55%
    18:00 +2°C° 0 mm 1 mps 743 mmHg 54%
    19:00 +2°C° 0 mm 1 mps 744 mmHg 53%
    20:00 +2°C° 0 mm 1 mps 744 mmHg 52%
    21:00 +2°C° 0 mm 1 mps 744 mmHg 50%
    22:00 +1°C° 0 mm 2 mps 744 mmHg 48%
    23:00 +2°C° 0 mm 2 mps 744 mmHg 49%

    Tomorrow, 9 December, Friday

    Time Temperature Precipitation Wind Pressure Humidity
    00:00 +2°C° 0 mm 2 mps 744 mmHg 49%
    01:00 +2°C° 0 mm 2 mps 744 mmHg 50%
    02:00 +1°C° 0 mm 2 mps 744 mmHg 51%
    03:00 +1°C° 0 mm 2 mps 744 mmHg 52%
    04:00 +1°C° 0 mm 2 mps 743 mmHg 53%
    05:00 -1°C° 0 mm 2 mps 744 mmHg 54%
    06:00 -1°C° 0 mm 2 mps 744 mmHg 54%
    07:00 -1°C° 0 mm 2 mps 744 mmHg 54%
    08:00 +2°C° 0 mm 2 mps 744 mmHg 53%
    09:00 +3°C° 0 mm 2 mps 744 mmHg 51%
    10:00 +5°C° 0 mm 1 mps 744 mmHg 49%
    11:00 +6°C° 0 mm 1 mps 744 mmHg 50%
    12:00 +7°C° 0 mm 1 mps 743 mmHg 51%
    13:00 +8°C° 0 mm 1 mps 743 mmHg 51%
    14:00 +6°C° 0 mm 1 mps 743 mmHg 54%
    15:00 +4°C° 0 mm 1 mps 743 mmHg 57%
    16:00 +3°C° 0 mm 1 mps 742 mmHg 60%
    17:00 +3°C° 0 mm 1 mps 742 mmHg 58%
    18:00 +2°C° 0 mm 1 mps 742 mmHg 56%
    19:00 +2°C° 0 mm 1 mps 742 mmHg 55%
    20:00 +2°C° 0 mm 1 mps 742 mmHg 54%
    21:00 +2°C° 0 mm 1 mps 742 mmHg 54%
    22:00 +2°C° 0 mm 1 mps 742 mmHg 53%
    23:00 +2°C° 0 mm 1 mps 742 mmHg 54%

    Day after tomorrow, 10 December, Saturday

    Time Temperature Precipitation Wind Pressure Humidity
    00:00 +2°C° 0 mm 1 mps 742 mmHg 55%
    01:00 +2°C° 0 mm 1 mps 741 mmHg 56%
    02:00 +2°C° 0 mm 1 mps 741 mmHg 55%
    03:00 +2°C° 0 mm 1 mps 741 mmHg 54%
    04:00 +2°C° 0 mm 1 mps 740 mmHg 52%
    05:00 +2°C° 0 mm 1 mps 740 mmHg 51%
    06:00 +2°C° 0 mm 1 mps 740 mmHg 49%
    07:00 +2°C° 0 mm 1 mps 740 mmHg 48%
    08:00 +4°C° 0 mm 1 mps 740 mmHg 45%
    09:00 +6°C° 0 mm 1 mps 740 mmHg 42%
    10:00 +7°C° 0 mm 1 mps 740 mmHg 40%
    11:00 +8°C° 0 mm 1 mps 740 mmHg 40%
    12:00 +9°C° 0 mm 1 mps 740 mmHg 41%
    13:00 +10°C° 0 mm 1 mps 739 mmHg 42%
    14:00 +7°C° 0 mm 1 mps 739 mmHg 44%
    15:00 +5°C° 0 mm 1 mps 739 mmHg 45%
    16:00 +2°C° 0 mm 2 mps 739 mmHg 47%
    17:00 +2°C° 0 mm 2 mps 739 mmHg 47%
    18:00 +2°C° 0 mm 2 mps 739 mmHg 48%
    19:00 +3°C° 0 mm 1 mps 739 mmHg 48%
    20:00 +2°C° 0 mm 2 mps 739 mmHg 50%
    21:00 +2°C° 0 mm 2 mps 739 mmHg 51%
    22:00 +2°C° 0 mm 2 mps 739 mmHg 52%
    23:00 +2°C° 0 mm 1 mps 738 mmHg 53%

    11 December, Sunday

    Time Temperature Precipitation Wind Pressure Humidity
    00:00 +2°C° 0 mm 1 mps 738 mmHg 55%
    01:00 +2°C° 0 mm 1 mps 737 mmHg 56%
    02:00 +2°C° 0 mm 1 mps 737 mmHg 57%
    03:00 +1°C° 0 mm 1 mps 736 mmHg 58%
    04:00 +1°C° 0 mm 1 mps 736 mmHg 58%
    05:00 +1°C° 0 mm 1 mps 736 mmHg 57%
    06:00 +1°C° 0 mm 1 mps 735 mmHg 56%
    07:00 +1°C° 0 mm 1 mps 735 mmHg 55%
    08:00 +3°C° 0 mm 1 mps 735 mmHg 51%
    09:00 +5°C° 0 mm 1 mps 735 mmHg 46%
    10:00 +6°C° 0 mm 1 mps 735 mmHg 42%
    11:00 +6°C° 0 mm 2 mps 735 mmHg 43%
    12:00 +7°C° 0 mm 2 mps 734 mmHg 44%
    13:00 +7°C° 0 mm 2 mps 734 mmHg 45%
    14:00 +5°C° 0 mm 3 mps 734 mmHg 51%
    15:00 +4°C° 0 mm 3 mps 734 mmHg 58%
    16:00 +3°C° 0 mm 3 mps 734 mmHg 65%
    17:00 +3°C° 0.4 mm 3 mps 734 mmHg 73%
    18:00 +3°C° 0.4 mm 4 mps 735 mmHg 82%
    19:00 +3°C° 0.4 mm 4 mps 735 mmHg 91%
    20:00 +3°C° 0.3 mm 4 mps 736 mmHg 92%
    21:00 +3°C° 0.3 mm 4 mps 736 mmHg 94%
    22:00 +3°C° 0.3 mm 4 mps 737 mmHg 96%
    23:00 +3°C° 0.1 mm 4 mps 737 mmHg 96%

    12 December, Monday

    Time Temperature Precipitation Wind Pressure Humidity
    00:00 +3°C° 0.1 mm 4 mps 737 mmHg 96%
    01:00 +3°C° 0.1 mm 4 mps 737 mmHg 96%
    02:00 +3°C° 0.1 mm 4 mps 737 mmHg 96%
    03:00 +3°C° 0.1 mm 4 mps 737 mmHg 96%
    04:00 +1°C° 0.1 mm 4 mps 737 mmHg 96%
    05:00 +1°C° 0.1 mm 4 mps 737 mmHg 96%
    06:00 +1°C° 0.1 mm 4 mps 738 mmHg 96%
    07:00 +2°C° 0.1 mm 3 mps 738 mmHg 96%
    08:00 +1°C° 0 mm 4 mps 738 mmHg 95%
    09:00 +3°C° 0 mm 4 mps 739 mmHg 94%
    10:00 +3°C° 0 mm 4 mps 739 mmHg 93%
    11:00 +3°C° 0 mm 4 mps 739 mmHg 91%
    12:00 +4°C° 0 mm 4 mps 739 mmHg 90%
    13:00 +4°C° 0 mm 4 mps 739 mmHg 88%
    14:00 +3°C° 0 mm 4 mps 739 mmHg 91%
    15:00 +3°C° 0 mm 3 mps 739 mmHg 93%
    16:00 +2°C° 0 mm 3 mps 739 mmHg 96%
    17:00 +2°C° 0 mm 3 mps 739 mmHg 96%
    18:00 +3°C° 0 mm 2 mps 740 mmHg 96%
    19:00 +3°C° 0 mm 2 mps 740 mmHg 96%
    20:00 +3°C° 0 mm 2 mps 740 mmHg 96%
    21:00 +3°C° 0 mm 2 mps 740 mmHg 96%
    22:00 +3°C° 0 mm 2 mps 740 mmHg 96%
    23:00 +3°C° 0 mm 1 mps 740 mmHg 96%

    13 December, Tuesday

    Time Temperature Precipitation Wind Pressure Humidity
    00:00 +3°C° 0 mm 1 mps 740 mmHg 96%
    01:00 +3°C° 0 mm 1 mps 740 mmHg 96%
    02:00 +2°C° 0 mm 1 mps 740 mmHg 96%
    03:00 +2°C° 0 mm 1 mps 740 mmHg 96%
    04:00 +1°C° 0 mm 1 mps 740 mmHg 97%
    05:00 +1°C° 0 mm 1 mps 740 mmHg 96%
    06:00 0°C° 0 mm 0 mps 740 mmHg 96%
    07:00 +1°C° 0 mm 0 mps 740 mmHg 96%
    08:00 +2°C° 0 mm 0 mps 741 mmHg 93%
    09:00 +3°C° 0 mm 0 mps 741 mmHg 90%
    10:00 +4°C° 0 mm 0 mps 741 mmHg 87%
    11:00 +5°C° 0 mm 0 mps 741 mmHg 86%
    12:00 +6°C° 0 mm 1 mps 741 mmHg 84%
    13:00 +7°C° 0 mm 1 mps 740 mmHg 83%
    14:00 +5°C° 0 mm 1 mps 740 mmHg 87%
    15:00 +4°C° 0 mm 1 mps 740 mmHg 91%
    16:00 +3°C° 0 mm 1 mps 740 mmHg 95%
    17:00 +3°C° 0 mm 1 mps 740 mmHg 95%
    18:00 +2°C° 0 mm 1 mps 740 mmHg 95%
    19:00 +2°C° 0 mm 1 mps 740 mmHg 94%
    20:00 +2°C° 0 mm 1 mps 741 mmHg 94%
    21:00 +2°C° 0 mm 1 mps 741 mmHg 94%
    22:00 +2°C° 0 mm 1 mps 741 mmHg 93%
    23:00 +2°C° 0 mm 1 mps 740 mmHg 93%
    Show more